Regional Weather Roundup
Issued by NWS

Home | Current Version | Previous Version | Text Only | Print | Product List | Glossary On
Versions: 1 2 3 4 5 6 7 8 9 10 11 12 13 14 15 16 17 18 19 20 21 22 23 24 25 26 27 28 29 30 31 32 33 34 35 36 37 38 39 40 41 42 43 44 45 46 47 48 49 50
000
ASUS46 KLOX 190312
RWRCA

SOUTHERN CALIFORNIA WEATHER ROUNDUP
NATIONAL WEATHER SERVICE OXNARD CALIFORNIA
700 PM PST THU DEC 18 2014

NOTE: "FAIR" INDICATES FEW OR NO CLOUDS BELOW 12,000 FEET WITH NO
SIGNIFICANT WEATHER AND/OR OBSTRUCTIONS TO VISIBILITY.

  -  STATIONS PRECEEDED BY AN ASTERISK (*) ARE NOT NWS OR FAA
     STATIONS AND ARE NOT SUBJECT TO NWS AND FAA QUALITY CONTROL.

CAZ041-042-087-190400-
LA AND ORANGE COUNTY COASTAL AREAS


CITY           SKY/WX    TMP DP  RH WIND       PRES   REMARKS
L.A. DOWNTOWN  CLEAR     57  49  74 CALM      30.19R
L.A. AIRPORT   PTCLDY    56  52  86 VRB3      30.19R
LONG BEACH     CLEAR     59  52  77 CALM      30.19R

CITY           SKY/WX    TMP DP  RH WIND       PRES   REMARKS
AVALON           N/A     55 N/A N/A MISG        N/A
FULLERTON      CLEAR     57  50  77 CALM      30.18R
*GETTY CENTER    N/A     54  45  71 N2          N/A
HAWTHORNE      CLEAR     60  52  74 CALM      30.19R
*LEO CARRILLO    N/A     54  49  82 N7          N/A
*LOS ALAMITOS  PTCLDY    55  52  88 CALM      30.19R
*REDONDO BEACH   N/A     55  49  78 CALM      30.18R
SANTA ANA      PTCLDY    61  50  67 CALM      30.19R
STA MONICA APT CLEAR     57  49  74 CALM      30.19R
TORRANCE       PTCLDY    55  52  88 CALM      30.20R
*UCLA            N/A     54  46  76 N6        30.17R

$$

CAZ547-548-048-190400-
LA COUNTY VALLEYS AND INLAND EMPIRE


CITY           SKY/WX    TMP DP  RH WIND       PRES   REMARKS
BURBANK        CLEAR     55  46  71 CALM      30.18R
VAN NUYS       CLEAR     56  46  69 CALM      30.19R

CITY           SKY/WX    TMP DP  RH WIND       PRES   REMARKS
CORONA AIRPORT CLEAR     53  46  77 CALM      30.20R
*CHATSWORTH      N/A     54  47  77 CALM      30.20R
CHINO          CLEAR     52  46  80 NW5       30.20R
*CLAREMONT       N/A     48  42  79 N2          N/A
MARCH AFB      CLEAR     49  47  92 W3        30.19R
*NORTHRIDGE      N/A     54  46  76 CALM        N/A
ONTARIO        PTCLDY    55  45  68 W3        30.19R
*PASADENA        N/A     55  48  76 CALM        N/A
POMONA         PTCLDY    50  45  81 CALM      30.22R
RIVERSIDE      CLEAR     54  45  71 CALM      30.19R
SAN BERNARDINO PTCLDY    50  41  71 CALM      30.19R
*SAN GABRIEL     N/A     58  46  65 CALM      30.17S
*SAN RAFAEL HI   N/A     52  46  80 W2          N/A
*SAUGUS          N/A     55  44  65 S6          N/A
*WHITEMAN AP   NOT AVBL
*WHITTIER HILL   N/A     51  50  96 CALM        N/A
*WOODLAND HILL   N/A     50  46  87 S1          N/A

$$

CAZ054-055-190400-
LA AND SAN BERNARDINO COUNTY MOUNTAINS


CITY           SKY/WX    TMP DP  RH WIND       PRES   REMARKS
*ACTON           N/A     44  35  71 CALM        N/A
*BIG BEAR AIRP CLEAR     28  27  93 CALM      30.21R
*BIG PINES       N/A     30  29  98 CALM        N/A
*CHILAO          N/A     37  35  92 CALM        N/A
MT WILSON NWS    N/A     34  36 100 MISG        N/A
SANDBERG       CLEAR     42  33  70 E8        30.20R
*WARM SPRINGS    N/A     41  33  72 NE8         N/A

$$

CAZ028-029-059-060-099-190400-
ANTELOPE VALLEY AND SURROUNDING AREAS


CITY           SKY/WX    TMP DP  RH WIND       PRES   REMARKS
LANCASTER      CLEAR     43  37  79 W5        30.21R
PALMDALE       CLEAR     45  36  70 CALM      30.21R
*POPPY PARK      N/A     43  37  80 W2          N/A

CITY           SKY/WX    TMP DP  RH WIND       PRES   REMARKS
29 PALMS       CLEAR     46  35  65 SW8       30.27R
BARSTOW/DAGGET CLEAR     46  38  73 CALM      30.21R
BISHOP         CLEAR     33  26  75 NW3       30.18R
CHINA LAKE     PTCLDY    46  39  76 SW3       30.20R
EDWARDS AFB    MOCLDY    43  39  85 SE5       30.20R
MOJAVE         CLOUDY    46  39  76 CALM      30.22R
NEEDLES        CLEAR     54  42  64 NW6       30.18R
VICTORVILLE    CLEAR     45  37  76 CALM      30.21R

$$

CAZ039-040-190400-
VENTURA AND SANTA BARBARA COUNTY COAST


CITY           SKY/WX    TMP DP  RH WIND       PRES   REMARKS
CAMARILLO      CLEAR     54  49  83 N3        30.19R
NWS OXNARD       N/A     55  48  80 CALM      30.19R
OXNARD AIRPORT CLEAR     55  50  83 CALM      30.19R
*POINT MUGU    PTCLDY    57  50  77 E5        30.20R
SBA APT/GOLETA CLOUDY    58  51  78 NW3       30.19R
*SANTA BARBARA   N/A     60  49  68 CALM      30.27R
*VENTURA         N/A     55  47  76 CALM      30.23S

$$

CAZ044-045-190400-
VENTURA COUNTY VALLEYS


CITY           SKY/WX    TMP DP  RH WIND       PRES   REMARKS
*SIMI VALLEY     N/A     52  49  88 CALM      30.19R
*OJAI            N/A     49  46  89 CALM      30.17R
*FILLMORE        N/A     52  44  76 CALM      30.11S

$$

CAZ053-190400-
VENTURA COUNTY MOUNTAINS


CITY           SKY/WX    TMP DP  RH WIND       PRES   REMARKS
*LOCKWOOD VLY    N/A     32  32 100 MISG        N/A
*ROSE VALLEY     N/A     45  45 100 MISG        N/A

$$

CAZ034-035-036-190400-
CENTRAL COAST AND SANTA YNEZ VALLEY


CITY           SKY/WX    TMP DP  RH WIND       PRES   REMARKS
SAN LUIS OBISP CLEAR     52  50  93 E3        30.19R
SANTA MARIA    CLEAR     53  48  83 S7        30.19R

CITY           SKY/WX    TMP DP  RH WIND       PRES   REMARKS
*CAL POLY SLO    N/A     50  50 100 E2          N/A
*LOMPOC        CLOUDY    52  46  82 CALM      30.20R
*PISMO BEACH     N/A     54  51  90 CALM      30.20R
*SANTA YNEZ    CLOUDY    52  50  93 W5        30.20R

$$

CAZ037-038-051-190400-
SAN LUIS OBISPO COUNTY INTERIOR AND CUYAMA VALLEY


CITY           SKY/WX    TMP DP  RH WIND       PRES   REMARKS
*CUYAMA          N/A     49  45  85 CALM      30.18R
PASO ROBLES    CLEAR     50  47  89 CALM      30.18R

$$

CAZ032-033-061-190400-
SOUTHERN DESERTS


CITY           SKY/WX    TMP DP  RH WIND       PRES   REMARKS
BLYTHE         CLEAR     54  47  77 NW3       30.18R
IMPERIAL       MOCLDY    56  43  61 CALM      30.17R
PALM SPRINGS   CLEAR     59  43  55 NW5       30.19R
THERMAL        CLEAR     49  42  77 S6        30.16R

$$

ELSEWHERE ACROSS THE WESTERN UNITED STATES AND MEXICO


CITY           SKY/WX    TMP DP  RH WIND       PRES   REMARKS
DENVER, CO     MOCLDY    29  25  85 S3        30.06R
GRAND CANYON,  MOCLDY    26  24  92 CALM      30.19R
HONOLULU, HI   PTSUNNY   79  66  65 E17       30.05R
KAHULUI, MAUI  PTCLDY    77  66  69 NE20G29   30.04R
LAKE TAHOE, CA MOCLDY    32  25  75 CALM      30.15R
LAS VEGAS, NV  CLEAR     51  38  60 S6        30.16R
MAMMOTH LAKES, FAIR      23  19  86 N3        30.19S
MEXICO CITY, M PTCLDY    63  45  51 SE15      30.30R
PHOENIX, AZ    CLEAR     54  44  69 SW6       30.14R
PORTLAND, OR   LGT RAIN  46  41  82 E18       29.81F
RENO, NV       CLOUDY    42  31  64 CALM      30.13R
SALT LAKE CITY PTCLDY    35  30  82 S5        30.17S WCI  31
SAN DIEGO, CA  MOCLDY    62  50  64 CALM      30.21R
SAN FRANCISCO, MOCLDY    58  54  86 CALM      30.14S
SAN JOSE, CA   MOCLDY    54  49  83 SE7       30.15S
SEATTLE, WA    CLOUDY    47  40  76 E10       29.74F
TIJUANA, MEX   PTCLDY    57  48  72 CALM      30.22R

$$

STATION/POSITION TIME  TEMP    WIND        PRES    VSBY  WAVE
                       AIR SEA DIR/SP/G                  HT/PER
                 (UTC) (F)     (DEG/KT/KT) (MB)    (MI)  (FT/S)
POINT ARGUELLO B NOT AVBL
WEST SANTA BARBA 0300   58 61  140/  2/  4 1021.8R         8/14
POINT CONCEPTION NOT AVBL
EAST SANTA BARBA NOT AVBL
SANTA MONICA BAY 0300   59 63  160/  4/  4 1022.4R         3/13



USA.gov is the U.S. government's official web portal to all federal, state and local government web resources and services.